Change the Weather History Date:

Sunday, January 12, 2014

  Actual Average Record
Temperature  
Mean Temperature 62 °F -  
Max Temperature 68 °F - - ()
Min Temperature 57 °F - - ()
Degree Days  
Heating Degree Days 2    
Growing Degree Days 12 (Base 50)    
Moisture  
Dew Point 46 °F    
Average Humidity 54    
Maximum Humidity 68    
Minimum Humidity 30    
Precipitation  
Precipitation 0.00 in - - ()
Sea Level Pressure  
Sea Level Pressure 30.18 in    
Wind  
Wind Speed 12 mph (ESE)    
Max Wind Speed 24 mph    
Max Gust Speed 28 mph    
Visibility 10 miles    
Events      
T = Trace of Precipitation, MM = Missing Value Source: NWS Daily Summary

Daily Weather History Graph

Daily Weather History Graph

Search for Another Location

Airport or City:

Trip Planner

Search our weather history database for the weather conditions in past years. The results will help you decide how hot, cold, wet, or windy it might be!

Date:

Astronomy

Jan. 12, 2014 Rise Set
Actual Time 6:53 AM CST 5:22 PM CST
Civil Twilight 6:27 AM CST 5:47 PM CST
Nautical Twilight 5:58 AM CST 6:16 PM CST
Astronomical Twilight 5:30 AM CST 6:45 PM CST
Moon 2:48 PM CST (1/12) 3:54 AM CST (1/12)
Length of Visible Light 11h 19m
Length of Day
10h 28m
Waxing Gibbous, 90% of the Moon is Illuminated
Jan 12
Waxing Gibbous
Jan 15
Full
Jan 23
Last Quarter
Jan 30
New
Feb 6
First Quarter

Hourly Weather History & Observations

Time (CST) Temp. Dew Point Humidity Pressure Visibility Wind Dir Wind Speed Gust Speed Precip Events Conditions
12:15 AM 60.8 °F 46.4 °F 59% 30.16 in 10.0 mi North 10.4 mph - N/A   Clear
12:35 AM 60.8 °F 48.2 °F 63% 30.16 in 10.0 mi North 10.4 mph - N/A   Clear
12:55 AM 60.8 °F 46.4 °F 59% 30.16 in 10.0 mi North 9.2 mph - N/A   Clear
1:15 AM 60.8 °F 44.6 °F 55% 30.16 in 10.0 mi NNE 9.2 mph - N/A   Clear
1:35 AM 60.8 °F 46.4 °F 59% 30.16 in 10.0 mi NNE 8.1 mph - N/A   Clear
1:55 AM 60.8 °F 44.6 °F 55% 30.17 in 10.0 mi NE 6.9 mph - N/A   Clear
2:15 AM 60.8 °F 44.6 °F 55% 30.17 in 10.0 mi NE 6.9 mph - N/A   Clear
2:35 AM 60.8 °F 41.0 °F 48% 30.17 in 10.0 mi NNE 8.1 mph - N/A   Clear
2:55 AM 60.8 °F 41.0 °F 48% 30.17 in 10.0 mi NE 8.1 mph - N/A   Clear
3:15 AM 59.0 °F 44.6 °F 59% 30.17 in 10.0 mi NE 6.9 mph - N/A   Clear
3:35 AM 59.0 °F 41.0 °F 51% 30.18 in 10.0 mi ENE 6.9 mph - N/A   Clear
3:55 AM 59.0 °F 41.0 °F 51% 30.17 in 10.0 mi ENE 8.1 mph - N/A   Clear
4:15 AM 59.0 °F 42.8 °F 55% 30.17 in 10.0 mi ENE 6.9 mph - N/A   Clear
4:35 AM 59.0 °F 41.0 °F 51% 30.18 in 10.0 mi ENE 8.1 mph - N/A   Clear
4:55 AM 59.0 °F 41.0 °F 51% 30.18 in 10.0 mi ENE 9.2 mph - N/A   Clear
5:15 AM 59.0 °F 41.0 °F 51% 30.18 in 10.0 mi ENE 9.2 mph - N/A   Clear
5:35 AM 57.2 °F 42.8 °F 59% 30.18 in 10.0 mi East 9.2 mph - N/A   Clear
5:55 AM 57.2 °F 39.2 °F 51% 30.19 in 10.0 mi East 9.2 mph - N/A   Clear
6:15 AM 57.2 °F 37.4 °F 48% 30.19 in 10.0 mi East 9.2 mph - N/A   Clear
6:35 AM 57.2 °F 42.8 °F 59% 30.20 in 10.0 mi East 9.2 mph - N/A   Clear
6:55 AM 57.2 °F 44.6 °F 63% 30.21 in 10.0 mi East 10.4 mph - N/A   Clear
7:15 AM 57.2 °F 46.4 °F 67% 30.21 in 10.0 mi ESE 10.4 mph - N/A   Clear
7:35 AM 59.0 °F 46.4 °F 63% 30.22 in 10.0 mi ESE 10.4 mph - N/A   Clear
7:55 AM 59.0 °F 46.4 °F 63% 30.22 in 10.0 mi East 10.4 mph - N/A   Clear
8:15 AM 59.0 °F 46.4 °F 63% 30.23 in 10.0 mi East 10.4 mph - N/A   Clear
8:35 AM 59.0 °F 46.4 °F 63% 30.24 in 10.0 mi East 11.5 mph - N/A   Clear
8:55 AM 60.8 °F 44.6 °F 55% 30.25 in 10.0 mi East 10.4 mph - N/A   Clear
9:15 AM 60.8 °F 42.8 °F 52% 30.25 in 10.0 mi East 9.2 mph - N/A   Clear
9:35 AM 60.8 °F 39.2 °F 45% 30.25 in 10.0 mi East 11.5 mph - N/A   Clear
9:55 AM 62.6 °F 42.8 °F 48% 30.26 in 10.0 mi East 11.5 mph - N/A   Clear
10:15 AM 62.6 °F 41.0 °F 45% 30.25 in 10.0 mi East 12.7 mph - N/A   Clear
10:35 AM 64.4 °F 33.8 °F 32% 30.25 in 10.0 mi ESE 15.0 mph - N/A   Clear
10:55 AM 64.4 °F 32.0 °F 30% 30.24 in 10.0 mi ESE 13.8 mph - N/A   Clear
11:15 AM 64.4 °F 33.8 °F 32% 30.24 in 10.0 mi ESE 12.7 mph - N/A   Clear
11:35 AM 64.4 °F 39.2 °F 40% 30.23 in 10.0 mi ESE 12.7 mph - N/A   Clear
11:55 AM 64.4 °F 41.0 °F 42% 30.22 in 10.0 mi ESE 12.7 mph - N/A   Clear
12:15 PM 64.4 °F 41.0 °F 42% 30.21 in 10.0 mi ESE 12.7 mph - N/A   Clear
12:35 PM 64.4 °F 42.8 °F 45% 30.20 in 10.0 mi ESE 12.7 mph - N/A   Clear
12:55 PM 64.4 °F 41.0 °F 42% 30.19 in 10.0 mi ESE 13.8 mph - N/A   Clear
1:15 PM 64.4 °F 37.4 °F 37% 30.18 in 10.0 mi ESE 12.7 mph - N/A   Clear
1:35 PM 64.4 °F 41.0 °F 42% 30.17 in 10.0 mi ESE 13.8 mph - N/A   Clear
1:55 PM 64.4 °F 42.8 °F 45% 30.16 in - ESE 13.8 mph - N/A   Clear
2:15 PM 64.4 °F 44.6 °F 49% 30.16 in - ESE 12.7 mph - N/A   Clear
2:35 PM 64.4 °F 44.6 °F 49% 30.15 in 10.0 mi ESE 13.8 mph - N/A   Clear
2:55 PM 64.4 °F 46.4 °F 52% 30.15 in 10.0 mi ESE 13.8 mph - N/A   Clear
3:15 PM 64.4 °F 46.4 °F 52% 30.15 in 10.0 mi ESE 15.0 mph - N/A   Clear
3:35 PM 64.4 °F 48.2 °F 56% 30.15 in 10.0 mi ESE 11.5 mph - N/A   Clear
3:55 PM 66.2 °F 48.2 °F 52% 30.15 in 10.0 mi SE 12.7 mph - N/A   Clear
4:15 PM 66.2 °F 46.4 °F 49% 30.15 in 10.0 mi SSE 16.1 mph - N/A   Clear
4:35 PM 66.2 °F 48.2 °F 52% 30.15 in 10.0 mi SSE 17.3 mph - N/A   Clear
4:55 PM 66.2 °F 48.2 °F 52% 30.15 in 10.0 mi SSE 17.3 mph - N/A   Clear
5:15 PM 66.2 °F 50.0 °F 56% 30.15 in 10.0 mi SSE 17.3 mph - N/A   Clear
5:35 PM 66.2 °F 50.0 °F 56% 30.14 in 10.0 mi SSE 18.4 mph - N/A   Clear
5:55 PM 66.2 °F 50.0 °F 56% 30.15 in 10.0 mi SSE 17.3 mph 24.2 mph N/A   Partly Cloudy
6:15 PM 66.2 °F 50.0 °F 56% 30.16 in 10.0 mi SSE 16.1 mph - N/A   Mostly Cloudy
6:35 PM 68.0 °F 51.8 °F 56% 30.15 in 10.0 mi SSE 19.6 mph - N/A   Mostly Cloudy
6:55 PM 68.0 °F 53.6 °F 60% 30.15 in 10.0 mi SE 18.4 mph - N/A   Mostly Cloudy
7:15 PM 68.0 °F 53.6 °F 60% 30.16 in 10.0 mi SSE 17.3 mph - N/A   Overcast
7:35 PM 68.0 °F 53.6 °F 60% 30.16 in 10.0 mi SSE 16.1 mph 23.0 mph N/A   Overcast
7:55 PM 68.0 °F 53.6 °F 60% 30.16 in 10.0 mi SSE 19.6 mph - N/A   Overcast
8:15 PM 68.0 °F 53.6 °F 60% 30.16 in 10.0 mi SSE 19.6 mph - N/A   Overcast
8:35 PM 68.0 °F 55.4 °F 64% 30.17 in 10.0 mi South 19.6 mph - N/A   Overcast
8:55 PM 68.0 °F 55.4 °F 64% 30.18 in 10.0 mi South 18.4 mph - N/A   Overcast
9:15 PM 68.0 °F 55.4 °F 64% 30.16 in 10.0 mi SSE 21.9 mph - N/A   Overcast
9:35 PM 68.0 °F 55.4 °F 64% 30.16 in 10.0 mi South 19.6 mph - N/A   Overcast
9:55 PM 68.0 °F 55.4 °F 64% 30.15 in 10.0 mi SSE 21.9 mph - N/A   Overcast
10:15 PM 68.0 °F 55.4 °F 64% 30.15 in 10.0 mi South 20.7 mph - N/A   Overcast
10:35 PM 68.0 °F 55.4 °F 64% 30.15 in 10.0 mi South 21.9 mph - N/A   Overcast
10:55 PM 68.0 °F 57.2 °F 68% 30.14 in 10.0 mi SSE 23.0 mph - N/A   Overcast
11:15 PM 68.0 °F 57.2 °F 68% 30.13 in 10.0 mi South 21.9 mph - N/A   Overcast
11:35 PM 68.0 °F 57.2 °F 68% 30.13 in 10.0 mi South 20.7 mph 27.6 mph N/A   Overcast
11:55 PM 68.0 °F 57.2 °F 68% 30.12 in 10.0 mi South 24.2 mph - N/A   Overcast